Date,TemperatureHighF,TemperatureAvgF,TemperatureLowF,DewpointHighF,DewpointAvgF,DewpointLowF,HumidityHigh,HumidityAvg,HumidityLow,PressureMaxIn,PressureMinIn,WindSpeedMaxMPH,WindSpeedAvgMPH,GustSpeedMaxMPH,PrecipitationSumIn
2013-1-1,41.8,37.6,34.5,42.0,36.5,30.5,100,96,81,30.11,29.93,8,0,13,0.59
2013-1-2,41.6,37.2,34.8,41.6,34.5,31.3,100,90,81,30.16,29.96,11,0,13,0.02
2013-1-3,41.7,33.5,24.2,33.0,28.9,22.5,95,84,48,30.33,30.13,6,0,8,0.00
2013-1-4,37.5,26.6,18.7,26.3,21.9,17.0,95,84,55,30.42,30.33,8,0,13,0.00
2013-1-5,42.7,30.9,18.1,34.6,24.8,16.4,98,80,41,30.45,30.24,5,0,10,0.04
2013-1-6,42.0,37.6,33.2,37.4,34.5,28.3,99,89,71,30.27,30.10,10,1,13,0.01
2013-1-7,47.4,33.3,24.0,32.3,27.5,22.5,95,81,48,30.44,30.27,7,1,11,0.00
2013-1-8,37.4,26.8,20.9,32.4,24.9,19.7,96,93,82,30.43,30.30,5,0,7,0.00
2013-1-9,47.5,40.7,29.6,46.4,38.3,28.1,99,91,74,30.46,30.30,3,0,6,0.03
2013-1-10,61.6,50.3,42.3,51.5,46.7,41.8,100,88,67,30.45,30.19,6,1,11,0.00
2013-1-11,61.0,52.7,44.4,59.8,51.6,44.1,100,96,77,30.19,30.00,5,0,8,0.09
2013-1-12,67.9,56.8,49.1,64.5,56.0,49.1,100,97,84,30.11,29.96,5,0,5,0.02
2013-1-13,65.3,54.3,43.4,59.9,52.9,43.4,100,96,76,30.04,29.91,3,0,6,0.39
2013-1-14,58.5,47.4,38.6,58.5,46.8,37.8,100,98,95,30.27,29.95,12,1,16,1.92
2013-1-15,46.5,42.3,38.4,46.5,42.1,37.6,100,99,96,30.18,29.92,5,1,8,2.33
2013-1-16,50.3,46.6,43.3,49.9,46.3,42.8,100,99,95,30.03,29.86,10,0,13,0.98
2013-1-17,44.1,37.3,27.4,44.1,35.6,27.2,100,94,68,30.32,29.93,7,1,8,0.89
2013-1-18,38.0,27.3,18.9,33.0,25.6,17.7,100,94,72,30.55,30.32,5,0,7,0.45
2013-1-19,43.6,29.6,19.4,34.0,26.8,18.2,97,90,63,30.45,30.17,5,0,7,0.30
2013-1-20,51.3,34.1,23.8,37.3,29.5,23.1,98,85,51,30.19,30.08,7,1,12,0.07
2013-1-21,44.3,31.4,22.4,31.9,20.7,6.9,96,69,31,30.17,30.04,13,1,22,0.00
2013-1-22,29.0,24.2,18.9,7.9,1.6,-3.6,55,38,25,30.33,30.15,10,1,16,0.00
2013-1-23,38.2,28.2,23.5,22.7,11.8,-1.6,88,52,32,30.37,30.09,11,1,13,0.01
2013-1-24,37.5,28.8,20.0,31.2,11.9,-1.3,88,52,26,30.46,30.05,14,2,17,0.00
2013-1-25,32.1,26.9,21.5,31.6,20.4,3.9,99,78,46,30.39,30.09,7,0,12,0.24
2013-1-26,37.3,30.9,24.1,32.3,28.9,23.1,99,92,75,30.39,30.16,8,0,11,0.12
2013-1-27,44.7,33.0,20.8,37.0,28.6,19.6,98,85,61,30.44,30.31,6,0,8,0.04
2013-1-28,58.5,45.3,34.9,46.8,41.3,34.4,99,87,60,30.35,30.18,8,0,11,0.12
2013-1-29,66.1,48.6,40.2,55.7,47.2,40.2,100,95,62,30.19,29.85,4,0,5,0.01
2013-1-30,66.6,56.5,42.1,59.4,53.0,36.7,100,89,69,29.84,29.42,16,-33,27,1.97
2013-1-31,42.1,34.8,30.2,36.7,25.0,20.0,87,68,48,29.99,29.54,16,2,27,0.02